Regional Weather Roundup
Issued by NWS

Home | Current Version | Previous Version | Graphics & Text | Print | Product List | Glossary On
Versions: 1 2 3 4 5 6 7 8 9 10 11 12 13 14 15 16 17 18 19 20 21 22 23 24 25 26 27 28 29 30 31 32 33 34 35 36 37 38 39 40 41 42 43 44 45 46 47 48 49 50
267
ASUS43 KFSD 232302
RWRSD

WEATHER ROUNDUP FOR SOUTH DAKOTA
NATIONAL WEATHER SERVICE SIOUX FALLS SD
600 PM CDT SUN APR 23 2017

NOTE: "FAIR" INDICATES FEW OR NO CLOUDS BELOW 12,000 FEET WITH NO
SIGNIFICANT WEATHER AND/OR OBSTRUCTIONS TO VISIBILITY.


SDZ001>005-009-010-012>017-240000-
NORTHWEST AND NORTH CENTRAL SOUTH DAKOTA

CITY           SKY/WX    TMP DP  RH WIND       PRES   REMARKS
BUFFALO          N/A     53  39  59 E16       29.67F
FAITH            N/A     63  44  50 NE16G22   29.70S
MOBRIDGE       SUNNY     64  41  42 NE29G35   29.66F
$$

SDZ012>016-024>037-041>051-057-063-072>074-240000-
SOUTHWEST AND SOUTH CENTRAL SOUTH DAKOTA

CITY           SKY/WX    TMP DP  RH WIND       PRES   REMARKS
RAPID CTY ARPT SUNNY     71  41  33 N10       29.65F
PIERRE         SUNNY     76  35  22 SW12      29.63F
CUSTER         SUNNY     65  25  22 W8        29.73F
ELLSWORTH AFB  SUNNY     68  41  37 NE14      29.66F
PHILIP         SUNNY     76  38  25 VRB6      29.63F
PINE RIDGE     CLOUDY    75  37  25 S12       29.66F
SPEARFISH      FAIR      59  43  55 E12G17    29.70F
WINNER         FAIR      75  30  19 S23G31    29.70F
$$

SDZ004>011-016>023-039-040-240000-
NORTHEAST SOUTH DAKOTA

CITY           SKY/WX    TMP DP  RH WIND       PRES   REMARKS
ABERDEEN       SUNNY     71  31  22 S9        29.73F
WATERTOWN      SUNNY     69  30  23 SW22G29   29.78F
BROOKINGS      SUNNY     70  30  22 S21G31    29.80F
SISSETON         N/A     68  42  38 SE9       29.78F
$$

SDZ017-020-022-023-036>040-048>070-240000-
SOUTHEAST SOUTH DAKOTA

CITY           SKY/WX    TMP DP  RH WIND       PRES   REMARKS
SIOUX FALLS    PTSUNNY   71  32  23 S24G35    29.81F
HURON          SUNNY     73  30  20 S18G31    29.73F
CHAMBERLAIN    SUNNY     76  33  20 S20G26    29.70F
MITCHELL       SUNNY     74  27  17 S20G37    29.76F
YANKTON        MOSUNNY   73  25  16 S24G33    29.79F
$$

ABBREVIATIONS USED IN REMARKS
   TC - TEMPERATURE IN CELSIUS
  WCI - WIND CHILL INDEX
   HX - HEAT INDEX
  VSB - VISIBILITY





USA.gov is the U.S. government's official web portal to all federal, state and local government web resources and services.